www.pogodaiklimat.ru

Погода и климат >> Архив погоды >> Норвегия >> Остров Карла XII


ПОГОДА на Острове Карла XII

  • Прогноз погоды на Острове Карла XII
  • Монитор погоды на Острове Карла XII

АРХИВ ПОГОДЫ на Острове Карла XII

Время (UTC), дата Ветер
(напр.,м/с)
 
Видим.   Явления Облачность Т
(С)
Тd
(С)
f
(%)
Тe
(С)
Тes
(С)
Комфортность P
(гПа)
Po
(гПа)
Тmin
(С)
Tmax
(С)
R
(мм)
R24
(мм)
S
(см)
22 14.09 В 12
{15}
н/о н/о -0.4 -8 -8 1009.6 1008.9
23 14.09 В 13
{15}
н/о н/о -0.4 -8 -8 1009.4 1008.7
00 15.09 В 13 н/о н/о -0.5 -8 -8 1009.5 1008.8
01 15.09 В 13
{15}
н/о н/о -0.4 -8 -8 1009.5 1008.8
02 15.09 В 12
{15}
н/о н/о -0.2 -7 -7 1009.6 1008.9
04 15.09 В 13
{16}
н/о н/о +0.2 -7 -7 1009.4 1008.7
05 15.09 В 13
{17}
н/о н/о 0.0 -7 -7 1010.0 1009.3
06 15.09 В 13 н/о н/о +0.2 -7 -7 1010.5 1009.8
07 15.09 В 13
{16}
н/о н/о +0.2 -7 -7 1010.8 1010.1
08 15.09 В 13
{16}
н/о н/о +0.2 -7 -7 1011.5 1010.8
09 15.09 В 13
{15}
н/о н/о +0.2 -7 -7 1012.3 1011.7
10 15.09 В 13
{15}
н/о н/о +0.2 -7 -7 1013.0 1012.3
11 15.09 В 14
{16}
н/о н/о +0.1 -7 -7 1013.2 1012.5
12 15.09 В 12
{16}
н/о н/о +0.2 -7 -7 1014.4 1013.7
13 15.09 В 11
{13}
н/о н/о -0.3 -7 -7 1015.3 1014.6
15 15.09 В 14
{17}
н/о н/о 0.0 -8 -8 1016.3 1015.6
16 15.09 В 12
{15}
н/о н/о +0.1 -7 -7 1017.3 1016.6
18 15.09 В 11 н/о н/о 0.0 -7 -7 1018.5 1017.8
19 15.09 В 11
{12}
н/о н/о -0.3 -7 -7 1019.3 1018.6
20 15.09 В 10
{13}
н/о н/о -0.6 -7 -7 1020.0 1019.3
21 15.09 В 11
{12}
н/о н/о -0.3 -7 -7 1020.6 1019.9
22 15.09 В 11
{12}
н/о н/о -0.9 -8 -8 1021.0 1020.3
23 15.09 В 11
{12}
н/о н/о -0.9 -8 -8 1021.4 1020.7
00 16.09 В 9
{13}
н/о н/о -1.1 -8 -8 1022.1 1021.4
02 16.09 В 10
{12}
н/о н/о -1.4 -8 -8 1023.0 1022.3
03 16.09 В 9
{11}
н/о н/о -1.7 -8 -8 1023.4 1022.7
04 16.09 В 9
{11}
н/о н/о -1.6 -8 -8 1023.8 1023.1
05 16.09 В 9
{11}
н/о н/о -1.7 -8 -8 1024.2 1023.5
06 16.09 В 9 н/о н/о -1.9 -9 -9 1024.3 1023.6
07 16.09 В 6
{10}
н/о н/о -1.9 -7 -7 1024.7 1024.0
08 16.09 В 7
{10}
н/о н/о -2.0 -8 -8 1025.0 1024.3
09 16.09 В 7
{9}
н/о н/о -2.2 -8 -8 1025.6 1024.8
10 16.09 В 7
{9}
н/о н/о -2.6 -9 -9 1026.0 1025.3
11 16.09 В 6
{9}
н/о н/о -2.5 -8 -8 1026.2 1025.5
12 16.09 В 6
{10}
н/о н/о -2.3 -8 -8 1026.5 1025.7
13 16.09 В 6
{8}
н/о н/о -2.5 -8 -8 1026.6 1025.9
14 16.09 СВ 7
{9}
н/о н/о -2.3 -8 -8 1026.5 1025.8
15 16.09 В 6
{9}
н/о н/о -2.2 -8 -8 1026.6 1025.9
17 16.09 СВ 6
{7}
н/о н/о -2.1 -8 -8 1026.6 1025.9
18 16.09 СВ 7 н/о н/о -2.1 -8 -8 1026.6 1025.9
19 16.09 СВ 6
{8}
н/о н/о -2.3 -8 -8 1026.7 1026.0
20 16.09 СВ 7
{8}
н/о н/о -2.1 -8 -8 1026.4 1025.7
21 16.09 СВ 7
{9}
н/о н/о -2.2 -8 -8 1026.7 1025.9
22 16.09 СВ 6
{7}
н/о н/о -2.4 -8 -8 1026.6 1025.9
23 16.09 СВ 6
{9}
н/о н/о -2.3 -8 -8 1026.6 1025.9
00 17.09 СВ 6
{9}
н/о н/о -2.8 -9 -9 1026.8 1026.1
01 17.09 СВ 8
{9}
н/о н/о -3.3 -10 -10 1026.7 1026.0
02 17.09 СВ 7
{9}
н/о н/о -3.6 -10 -10 1026.5 1025.8
03 17.09 СВ 7
{9}
н/о н/о -4.1 -11 -11 1026.3 1025.6
04 17.09 СВ 7
{8}
н/о н/о -4.2 -11 -11 1026.1 1025.4
05 17.09 СВ 7
{9}
н/о н/о -4.4 -11 -11 1026.1 1025.4
06 17.09 СВ 7
{9}
н/о н/о -4.6 -11 -11 1025.8 1025.1 -4.6 -2.0
07 17.09 СВ 6
{8}
н/о н/о -4.7 -11 -11 1025.6 1024.9
08 17.09 СВ 5
{8}
н/о н/о -4.5 -10 -10 1025.5 1024.8
09 17.09 СВ 6
{8}
н/о н/о -3.9 -10 -10 1025.3 1024.6
10 17.09 СВ 5
{8}
н/о н/о -3.5 -9 -9 1025.2 1024.5
11 17.09 СВ 6
{8}
н/о н/о -3.7 -10 -10 1025.0 1024.3
12 17.09 СВ 6
{8}
н/о н/о -3.8 -10 -10 1024.8 1024.1
14 17.09 С 7
{9}
н/о н/о -3.7 -10 -10 1024.0 1023.3
15 17.09 СВ 8
{9}
н/о н/о -4.2 -11 -11 1023.7 1023.0
16 17.09 СВ 8
{9}
н/о н/о -4.2 -11 -11 1023.5 1022.8
17 17.09 СВ 7
{9}
н/о н/о -4.5 -11 -11 1023.2 1022.5
18 17.09 СВ 6 н/о н/о -4.9 -11 -11 1022.7 1022.0
19 17.09 СВ 6
{8}
н/о н/о -5.0 -11 -11 1022.3 1021.6
20 17.09 С 5
{8}
н/о н/о -5.2 -11 -11 1021.9 1021.1
21 17.09 С 5
{7}
н/о н/о -5.5 -11 -11 1021.7 1021.0
22 17.09 С 5
{6}
н/о н/о -5.3 -11 -11 1021.6 1020.9
23 17.09 С 4
{7}
н/о н/о -5.6 -11 -11 1020.9 1020.2
00 18.09 С 4
{8}
н/о н/о -5.2 -10 -10 1020.6 1019.8
01 18.09
{7}
н/о н/о -4.6 1020.1 1019.4
02 18.09 С 5
{7}
н/о н/о -4.1 -10 -10 1019.5 1018.8
03 18.09 С 5
{9}
н/о н/о -3.3 -9 -9 1018.8 1018.1
04 18.09 С 7
{9}
н/о н/о -2.9 -9 -9 1018.1 1017.3
05 18.09 С 6
{10}
н/о н/о -2.6 -8 -8 1017.4 1016.7
06 18.09 С 7
{10}
н/о н/о -2.4 -8 -8 1016.7 1016.0 -5.8 -2.3
07 18.09 С 7
{10}
н/о н/о -2.3 -8 -8 1016.2 1015.5
08 18.09 С 7
{10}
н/о н/о -2.3 -8 -8 1015.6 1014.9
09 18.09 С 8
{11}
н/о н/о -2.5 -9 -9 1015.1 1014.4
10 18.09 С 8
{11}
н/о н/о -2.7 -9 -9 1014.7 1014.0
11 18.09 С 8
{10}
н/о н/о -2.9 -10 -10 1014.2 1013.5
12 18.09 С 9
{11}
н/о н/о -3.1 -10 -10 1013.8 1013.1
13 18.09 С 8
{11}
н/о н/о -3.2 -10 -10 1013.2 1012.5
14 18.09 С 8
{11}
н/о н/о -3.4 -10 -10 1012.8 1012.1
15 18.09 С 8
{11}
н/о н/о -3.5 -10 -10 1012.5 1011.8
16 18.09 С 8
{11}
н/о н/о -3.4 -10 -10 1012.1 1011.4
18 18.09 С 7 н/о н/о -3.4 -10 -10 1011.4 1010.7
19 18.09 С 7
{9}
н/о н/о -3.4 -10 -10 1011.1 1010.4
20 18.09 С 7
{9}
н/о н/о -3.3 -10 -10 1010.9 1010.2
21 18.09 С 6
{9}
н/о н/о -3.2 -9 -9 1010.8 1010.1
22 18.09 С 6
{9}
н/о н/о -3.1 -9 -9 1010.9 1010.2
23 18.09 С 6
{8}
н/о н/о -3.1 -9 -9 1010.7 1010.0
00 19.09 С 7
{10}
н/о н/о -3.2 -10 -10 1010.5 1009.8
02 19.09 С 7
{8}
н/о н/о -3.5 -10 -10 1010.6 1009.9
03 19.09 С 5
{9}
н/о н/о -3.7 -9 -9 1010.5 1009.8
04 19.09 С 5
{7}
н/о н/о -3.6 -9 -9 1010.5 1009.8
05 19.09 С 4
{6}
н/о н/о -3.6 -8 -8 1010.6 1009.9
06 19.09 С 4 н/о н/о -3.6 -8 -8 1010.7 1010.0
07 19.09 СЗ 5
{6}
н/о н/о -3.4 -9 -9 1010.7 1010.0
08 19.09 СЗ 5
{6}
н/о н/о -3.3 -9 -9 1010.9 1010.2
09 19.09 СЗ 5
{6}
н/о н/о -3.2 -8 -8 1011.1 1010.4
11 19.09 СЗ 4
{5}
н/о н/о -3.0 -7 -7 1011.3 1010.6
12 19.09 СЗ 5 н/о н/о -2.8 -8 -8 1011.6 1010.9
13 19.09 СЗ 5
{6}
н/о н/о -2.9 -8 -8 1011.5 1010.8
14 19.09 СЗ 5
{6}
н/о н/о -2.9 -8 -8 1011.5 1010.8
15 19.09 СЗ 3
{5}
н/о н/о -2.7 -6 -6 1011.6 1010.9
17 19.09 СЗ 5
{6}
н/о н/о -2.6 -8 -8 1011.6 1010.9
18 19.09 СЗ 5 н/о н/о -2.7 -8 -8 1011.4 1010.7
19 19.09 СЗ 4
{6}
н/о н/о -2.6 -7 -7 1011.3 1010.6
20 19.09 СЗ 5
{6}
н/о н/о -2.6 -8 -8 1011.4 1010.7
21 19.09 СЗ 6
{6}
н/о н/о -2.8 -9 -9 1011.3 1010.6
22 19.09 СЗ 5
{7}
н/о н/о -3.4 -9 -9 1011.4 1010.7
23 19.09 СЗ 5
{6}
н/о н/о -3.1 -8 -8 1011.4 1010.7
00 20.09 СЗ 5
{7}
н/о н/о -2.8 -8 -8 1011.3 1010.6
01 20.09 СЗ 6
{7}
н/о н/о -2.8 -9 -9 1011.1 1010.4
02 20.09 СЗ 5
{7}
н/о н/о -3.0 -8 -8 1010.6 1009.9
03 20.09 СЗ 6
{7}
н/о н/о -3.0 -9 -9 1010.3 1009.6
04 20.09 СЗ 5
{7}
н/о н/о -2.8 -8 -8 1010.1 1009.4
05 20.09 СЗ 6
{7}
н/о н/о -2.8 -9 -9 1009.6 1008.9
06 20.09 С 5
{7}
н/о н/о -2.8 -8 -8 1009.5 1008.8 -3.5 -2.6
07 20.09 С 8
{10}
н/о н/о -3.9 -11 -11 1009.3 1008.6
08 20.09 С 5
{8}
н/о н/о -4.1 -10 -10 1009.2 1008.5
09 20.09 СЗ 7
{8}
н/о н/о -3.9 -10 -10 1008.9 1008.2
10 20.09 СЗ 6
{8}
н/о н/о -3.4 -9 -9 1008.7 1008.0
11 20.09 С 6
{10}
н/о н/о -3.3 -9 -9 1008.6 1007.9
12 20.09 С 6
{10}
н/о н/о -3.3 -9 -9 1008.4 1007.7
14 20.09 С 7
{11}
н/о н/о -3.1 -9 -9 1007.8 1007.1
15 20.09 С 8
{10}
н/о н/о -3.3 -10 -10 1007.4 1006.7
16 20.09 СЗ 10
{11}
н/о н/о -3.8 -12 -12 1007.1 1006.4
17 20.09 СЗ 9
{11}
н/о н/о -4.0 -11 -11 1006.8 1006.1
18 20.09 СЗ 9 н/о н/о -4.0 -11 -11 1006.6 1005.9
19 20.09 С 8
{12}
н/о н/о -3.7 -11 -11 1006.5 1005.8
20 20.09 С 7
{11}
н/о н/о -3.2 -10 -10 1006.4 1005.7
21 20.09 СЗ 9
{11}
н/о н/о -3.2 -10 -10 1006.3 1005.6
22 20.09 С 8
{12}
н/о н/о -2.8 -9 -9 1006.2 1005.5
23 20.09 СЗ 9
{12}
н/о н/о -2.9 -10 -10 1006.0 1005.3
00 21.09 СЗ 9
{12}
н/о н/о -2.8 -10 -10 1005.8 1005.1
01 21.09 С 9
{11}
н/о н/о -2.7 -10 -10 1005.7 1005.0
02 21.09 С 8
{11}
н/о н/о -2.7 -9 -9 1005.8 1005.1
03 21.09 С 9
{13}
н/о н/о -2.8 -10 -10 1005.8 1005.1
04 21.09 С 9
{13}
н/о н/о -2.8 -10 -10 1005.8 1005.1
05 21.09 С 8
{14}
н/о н/о -2.7 -9 -9 1006.0 1005.3
06 21.09 С 8
{14}
н/о н/о -2.8 -9 -9 1006.3 1005.6 -4.2 -2.7
07 21.09 С 8
{11}
н/о н/о -2.8 -9 -9 1006.7 1006.0
08 21.09 С 7
{11}
н/о н/о -2.8 -9 -9 1007.4 1006.7
09 21.09 С 7
{9}
н/о н/о -2.9 -9 -9 1007.9 1007.2
10 21.09 С 7
{10}
н/о н/о -2.8 -9 -9 1008.3 1007.6
11 21.09 С 7
{9}
н/о н/о -2.7 -9 -9 1009.0 1008.3
12 21.09 С 7
{11}
н/о н/о -2.7 -9 -9 1009.2 1008.5
13 21.09 С 6
{9}
н/о н/о -2.7 -8 -8 1009.6 1008.9
15 21.09 С 7
{10}
н/о н/о -2.7 -9 -9 1010.3 1009.6
18 21.09 С 5 н/о н/о -2.2 -7 -7 1011.8 1011.1
19 21.09 С 5
{6}
н/о н/о -2.0 -7 -7 1012.5 1011.8
20 21.09 С 4
{5}
н/о н/о -1.7 -6 -6 1013.1 1012.4
21 21.09 С 3
{5}
н/о н/о -1.6 -5 -5 1013.7 1013.0

 

Местоположение метеостанции Остров Карла XII (Норвегия): широта 80.65 долгота 25.01 высота над уровнем моря 5 м.

В архиве по умолчанию представлена погода на Острове Карла XII за последнюю неделю. Архивные данные за месяц целиком и за предыдущие месяцы, начиная с января 2011 года, Вы можете получить, выбрав интересующий диапазон дат из раскрывающегося списка и нажав кнопку "Ввод!".


*Определитесь, кто Вы:
робот инопланетянин человек

Внимание! Время в таблицах - всемирное. Для получения местного времени необходимо прибавить поправку, которая равна 1 ч.

Смотрите также архив погоды в соседних городах и на ближайших метеорологических станциях:

Погода на Острове Белый (Норвегия) (137 км)
Погода на Верлегенхукен (Норвегия) (176 км)
Погода на Конгсёйа (Норвегия) (206 км)
Погода на Эдже (Норвегия) (271 км)
Погода в Пирамиде (Норвегия) (280 км)
Погода в Ню-Олесунн (Норвегия) (321 км)
Погода в Свальбард аэропорту (Норвегия) (329 км)
Погода в Баренцбурге (Шпицберген, Россия) (361 км)
Погода на Акселойа (Норвегия) (392 км)
Погода на Хорнсунне (Норвегия) (453 км)

Пояснения к столбцам:

Ветер - указаны скорость ветра в м/с - средняя за 10 мин, порывы в срок и между сроками (в фигурных скобках) и направление, откуда дует ветер: С - северный, СВ - северо-восточный, В - восточный, ЮВ - юго-восточный, Ю - южный, ЮЗ - юго-западный, З - западный, СЗ - северо-западный.
Видимость - горизонтальная дальность видимости в метрах или километрах. При видимости от 1 до 10 км при отсутствии осадков обычно наблюдается дымка, при ухудшении видимости до 1 км и менее - туман. В сухую погоду видимость может ухудшаться дымом, пылью или мглою.
Явления - указаны атмосферные явления, наблюдавшиеся в срок или в последний час перед сроком; фигурными скобками обозначены явления, наблюдавшиеся между сроками (за 1-3 часа до срока); квадратными скобками обозначены град или гололедные отложения с указанием их диаметра в мм.
Облачность - указаны через наклонную черту общая и нижняя облачность в баллах и высота нижней границы облаков в метрах; квадратными скобками обозначены формы облаков: Ci - перистые, Cs - перисто-слоистые, Cc - перисто-кучевые, Ac - высококучевые, As - высокослоистые, Sc - слоисто-кучевые, Ns - слоисто-дождевые, Cu - кучевые, Cb - кучево-дождевые. Подробнее классификацию облаков см. в Атласе облаков (PDF).
T - Температура воздуха - температура, измеренная на высоте 2 м над землей.
Td - Температура точки росы - температура, при понижении до которой содержащийся в воздухе водяной пар достигнет насыщения.
f - Относительная влажность воздуха - влажноcть воздуха, измеренная на высоте 2 м над землей.
Te - Эффективная температура - температура, которую ощущает одетый по сезону человек в тени. Характеристика душности погоды. При расчете учитывается влияние влажности воздуха и скорости ветра на теплоощущения человека.
Tes - Эффективная температура на солнце - температура, которую ощущает человек, с поправкой на солнечный нагрев. Характеристика знойности погоды. Зависит от высоты солнца над горизонтом, облачности и скорости ветра. Ночью, в пасмурную погоду, а также при ветре 12 м/с и более поправка равна нулю.
P - Атмосферное давление - приведенное к уровню моря атмосферное давление.
Po - Атмосферное давление - измеренное на уровне метеостанции атмосферное давление.
Tmin - Минимальная температура - минимум температуры воздуха на высоте 2 м над землей.
Tmax - Максимальная температура - максимум температуры воздуха на высоте 2 м над землей.
R - Количество осадков - Количество выпавших осадков за период времени, мм. При наведении курсора мыши на число - период времени, за который выпало указанное количество осадков.
R24 - Количество осадков - Количество выпавших осадков за 24 часа, мм.
S - Снежный покров - Высота снежного покрова, см. При наведении курсора мыши на число - состояние снежного покрова и степень покрытия местности в баллах.